Погода в Аллаке

Россия / Алтайский край     53°48′03″N   81°31′49″E
темп.,
°C
ветер,
м/с
пор.,
м/с
влажн.,
%
обл.,
%
осадки,
мм/ч
давл.,
гПа
погр.,
м
22 октября, пт
пт2201:00+7ююз3559100 0.0 101067
04:00+7ююз3758100 0.0 1010124
07:00+4зюз61288100 0.0 1014649
10:00+5юз71273100 0.0 10161194
13:00+6юз81354100 0.0 10181391
16:00+6зюз81348100 0.0 10201803
19:00+4зюз6115881 0.0 10231051
22:00+3ююз512595 0.0 1024405
23 октября, сб
сб2301:00+3ююз6155695 0.0 1024506
04:00+3ююз816505 0.0 1024664
07:00+3ююз81652100 0.0 1024824
10:00+4ююз10165393 0.0 10221045
13:00+6ююз101753100 0.0 10211069
16:00+4ююз111980100 0.1 10191026
19:00+5юз111877100 0.8 10181067
22:00+7юз101770100 0.0 1019992
24 октября, вс
вс2401:00+7юз9167096 0.0 1019794
04:00+7юз91669100 0.0 1019627
07:00+7юз81666100 0.0 1020656
10:00+7юз81371100 0.0 1021634
13:00+10юз81268100 0.0 1021894
16:00+12зюз7116251 0.0 10211212
19:00+9юз4107548 0.0 1023241
22:00+7ююз498789 0.0 1024189
25 октября, пн
пн2501:00+7ююз4108693 0.0 1023241
04:00+6ююз4118785 0.0 1022264
07:00+7ююз51383100 0.0 1021311
10:00+8ююз61476100 0.0 1020430
13:00+12юз813528 0.0 1019734
16:00+13юз71243100 0.0 1019937
19:00+9юз495337 0.0 1020177
22:00+7з336180 0.0 102130
26 октября, вт
вт2601:00+6юз116561 0.0 102010
04:00+5ююв226869 0.0 102014
07:00+5ююв2370100 0.0 101930
10:00+6ююв3672100 0.0 1017169
13:00+11ю584573 0.0 1015429
16:00+13ююв483879 0.0 1011652
19:00+9ююв4105167 0.0 1010158
22:00+9ююз5134672 0.0 1009300